Regional Weather Roundup
Issued by NWS

Home | Current Version | Previous Version | Text Only | Print | Product List | Glossary Off
Versions: 1 2 3 4 5 6 7 8 9 10 11 12 13 14 15 16 17 18 19 20 21 22 23 24 25 26 27 28 29 30 31 32 33 34 35 36 37 38 39 40 41 42 43 44 45 46 47 48 49 50

000
ASUS43 KLSX 010659
RWRMO

WEATHER SUMMARY FOR MISSOURI
NATIONAL WEATHER SERVICE SPRINGFIELD MO
200 AM CDT FRI AUG 01 2014

NOTE: "FAIR" INDICATES FEW OR NO CLOUDS BELOW 12,000 FEET WITH NO
       SIGNIFICANT WEATHER AND/OR OBSTRUCTIONS TO VISIBILITY.
       CURRENT SKY AND/OR WEATHER CONDITIONS ARE NOT AVAILABLE FOR
       CHILLICOTHE AND FARMINGTON.

MOZ001>031-035>038-043-044-053-054-010800-
...NORTHERN AND WESTERN MISSOURI...

CITY           SKY/WX    TMP DP  RH WIND       PRES   REMARKS
KANSAS CTY INT MOCLDY    67  59  75 S6        30.05F
KANSAS C DTWN  PTCLDY    72  59  63 E3        30.04F
LEE`S SUMMIT   CLEAR     69  58  67 S5        30.06F
ST JOSEPH      CLOUDY    67  62  84 N7        30.08R
CHILLICOTHE      N/A     65  60  84 CALM      30.07S
KIRKSVILLE     CLOUDY    66  61  84 S3        30.07F

$$
MOZ066>068-077>081-088>096-101>105-010800-
...SOUTHWEST MISSOURI...

CITY           SKY/WX    TMP DP  RH WIND       PRES   REMARKS
SPRINGFIELD    CLEAR     64  62  93 S5        30.08F
JOPLIN         CLEAR     63  63 100 CALM      30.08S FOG

$$
MOZ032>034-039>042-045>050-055>058-069>072-010800-
...CENTRAL MISSOURI...

CITY           SKY/WX    TMP DP  RH WIND       PRES   REMARKS
COLUMBIA       CLEAR     66  58  75 E6        30.06S
JEFFERSON CITY CLEAR     63  59  87 SE6       30.04F
ROLLA          CLEAR     65  62  90 SW9       30.06F
SEDALIA        CLEAR     64  58  80 S5        30.07S
OSAGE BEACH    CLEAR     66  61  82 S3        30.06F

$$
MOZ051-052-059>065-010800-
...EAST CENTRAL MISSOURI...

CITY           SKY/WX    TMP DP  RH WIND       PRES   REMARKS
ST LOUIS INTL  PTCLDY    72  62  71 S3        30.06F
SPIRIT OF STL  CLEAR     63  60  90 CALM      30.05F
ST CHARLES     CLEAR     65  63  93 CALM      30.05F

$$
MOZ072>076-082>087-097>100-106>115-010800-
...SOUTH CENTRAL AND SOUTHEAST MISSOURI...

CITY           SKY/WX    TMP DP  RH WIND       PRES   REMARKS
CAPE GIRARDEAU PTCLDY    63  61  93 CALM      30.07F
FARMINGTON     PTCLDY    64  63  94 CALM      30.10S
POPLAR BLUFF   CLEAR     63  59  87 NW3       30.06S FOG
WEST PLAINS    FOG       60  59  96 CALM      30.10S VSB 1/2

$$


USA.gov is the U.S. government's official web portal to all federal, state and local government web resources and services.